Regional Weather Roundup
Issued by NWS Wakefield, VA

Current Version | Previous Version | Text Only | Print | Product List | Glossary On
Versions: 1 2 3 4 5 6 7 8 9 10 11 12 13 14 15 16 17 18 19 20 21 22 23 24 25 26 27 28 29 30 31 32 33 34 35 36 37 38 39 40 41 42 43 44 45 46 47 48 49 50
000
ASUS41 KAKQ 041715
RWRAKQ

REGIONAL WEATHER ROUNDUP
NATIONAL WEATHER SERVICE WAKEFIELD VA
100 PM EDT FRI SEP 04 2015

Note: "fair" indicates few or no clouds below 12,000 feet with no
significant weather and/or obstructions to visibility. * = Denotes
station may not report precipitation (e.g., rain,snow,etc.),
thunder or fog.

VAZ042-051-052>054-056-041800-
NORTHERN VIRGINIA

CITY           SKY/WX    TMP DP  RH WIND       PRES   REMARKS
WASH NATIONAL  MOSUNNY   91  70  49 E7        30.02F HX  96
DULLES         MOSUNNY   90  69  50 E8        30.03F
FORT BELVOIR   SUNNY     90  70  51 VRB5      30.01F HX  96
QUANTICO       PTSUNNY   90  68  48 NE9       30.01F
FREDERICKSBRG* MOSUNNY   88  69  52 NE7       30.00F
STAFFORD*      PTSUNNY   88  67  48 N3        30.05S
WARRENTON      SUNNY     90  71  52 N6        30.03S HX  96
CULPEPER*      MOSUNNY   88  70  56 N5        30.04S
MANASSAS*      MOSUNNY   90  70  51 NE9       30.02F HX  95
LEESBURG*      MOSUNNY   90  72  55 N3        30.04F HX  96
WINCHESTER     SUNNY     90  66  45 E7        30.05F
FRONT ROYAL*   FAIR      86  70  58 E5        30.05S
LURAY*         FAIR      82  68  61 E3        30.06S
$$

VAZ048-049-060>072-079>083-041800-
CENTRAL AND SOUTH CENTRAL VIRGINIA

CITY           SKY/WX    TMP DP  RH WIND       PRES   REMARKS
RICHMOND       PTSUNNY   92  69  47 CALM      30.00F HX  97
CHESTERFIELD*  FAIR      91  64  40 SE8       30.01F
PETERSBURG*    MOSUNNY   92  74  55 E7        30.00F HX 102
HANOVER        LGT RAIN  76  71  85 SW5       30.02S
TAPPAHANNOCK*  MOSUNNY   91  65  41 N6        30.01F
QUINTON*       FAIR      89  74  59 N3        29.99F HX  98
CHARLOTTSVILLE MOSUNNY   89  68  49 N8        30.04S
GORDONSVILLE*  FAIR      90  70  51 E7        30.02F HX  95
ORANGE*        PTSUNNY   88  70  55 N6        30.04S
LOUISA*        PTSUNNY   90  68  48 NE6       30.01F
BUMPASS*       FAIR      89  72  58 CALM      30.02S HX  95
FARMVILLE*     MOSUNNY   91  67  45 NE5       30.01S
CREWE*         FAIR     N/A N/A N/A CALM      30.01F
FORT PICKETT*  FAIR      90  71  53 NE6       30.01F HX  96
CHASE CITY*    FAIR      91  73  56 NE3       30.01F HX  99
CLARKSVILLE*   FAIR      86  72  62 CALM      30.02S
SOUTH HILL*    PTSUNNY   83  73  71 CALM      30.07F
LAWRENCEVILLE* FAIR      86  73  66 CALM      30.01S
EMPORIA*       PTSUNNY   86  72  62 CALM      30.01S
$$

VAZ088>098-041800-
SOUTHEAST VIRGINIA

CITY           SKY/WX    TMP DP  RH WIND       PRES   REMARKS
NORFOLK        MOSUNNY   85  73  67 NE12      30.00R
VIRGINIA BEACH MOSUNNY   90  72  55 NE13G20   29.99S HX  97
NORFOLK NAVAL  MOSUNNY   86  72  62 E13       30.01S HAZE
WEST POINT*    MOSUNNY   92  69  45 E8        30.00F HX  96
SALUDA*        FAIR      85  74  68 E8        30.00F
NEWPORT NEWS   SUNNY     87  72  60 E13       30.00S
LANGLEY AFB    MOSUNNY   87  72  59 E13       29.99F
FORT EUSTIS    SUNNY     90  69  48 E10       29.98S
WILLIAMSBURG*  MOSUNNY   97  75  49 E8        30.00S HX 109
HR EXEC AP*      N/A     91  73  55 NE10G16   30.00F HX 100
FRANKLIN*      MOSUNNY   90  71  52 NE6       29.98F HX  96
WAKEFIELD      MOSUNNY   93  68  43 VRB7      29.98F HX  97
$$

VAZ020-022-025-037-045-041800-
WEST CENTRAL AND SOUTHWEST VIRGINIA

CITY           SKY/WX    TMP DP  RH WIND       PRES   REMARKS
STAUNTON*      MOSUNNY   83  69  63 E8        30.10R
WAYNESBORO*    PTSUNNY   84  68  58 NE9       30.10R
HOT SPRINGS VA MOSUNNY   77  63  61 E5        30.21F
LYNCHBURG      MOSUNNY   85  67  54 NE6       30.05F
DANVILLE       SUNNY     90  68  48 NE8       30.02F
SOUTH BOSTON*  FAIR      89  68  50 NE3       30.02S
MARTINSVILLE   SUNNY     92  65  42 CALM      30.06F
ROANOKE        MOSUNNY   89  66  46 NE7       30.08F
BLACKSBURG     MOSUNNY   81  69  66 NE6       30.15F
DUBLIN*          N/A     83  66  57 NW6       30.14F
MARION*        MOSUNNY   83  64  51 NE7       30.18S
HILLSVILLE*    PTSUNNY   79  67  66 N9        30.14F
RICHLANDS*     FAIR      80  21  11 NE5       30.17F
WISE*          MOSUNNY   81  61  50 NE5       30.19S
ABINGDON*      MOSUNNY   84  61  45 E5        30.13F
$$

MDZ021>025-VAZ099-100-041800-
SOUTHERN MARYLAND AND THE DELMARVA PENINSULA

CITY           SKY/WX    TMP DP  RH WIND       PRES   REMARKS
PATUXENT RIVER MOSUNNY   86  70  58 E8        30.01F HAZE
BAY BRIDGE APT   N/A     86  72  62 CALM      30.03S
LEONARDTOWN    NOT AVBL
DOVER          SUNNY     86  70  58 E9        30.03S
GEORGETOWN     SUNNY     88  63  43 E12G20    30.04S
EASTON         MOSUNNY   90  68  48 SE9       30.05F
CAMBRIDGE      SUNNY     90  68  48 SE9       30.01F
SALISBURY      MOSUNNY   88  66  48 E12       30.02S
OCEAN CITY     MOSUNNY   84  74  71 E10       30.03S
WALLOPS ISLAND MOSUNNY   86  71  60 NE13      30.03R
ACCOMACK*      MOSUNNY  N/A N/A N/A E10       30.01S
$$

NCZ012>017-030>032-041800-
NORTH CENTRAL AND EASTERN NORTH CAROLINA

CITY           SKY/WX    TMP DP  RH WIND       PRES   REMARKS
ROANOKE RAPIDS FAIR      88  72  58 N5        30.00F
RALEIGH        MOSUNNY   89  69  51 E3        30.01F
ELIZABETH CITY MOSUNNY   88  72  58 NE10      29.98S
AHOSKIE*       MOSUNNY   85  74  69 N3        29.99F
EDENTON*       PTSUNNY   88  72  59 CALM      29.98F HX  95
CURRITUCK*     MOSUNNY   86  73  64 NE10G16   29.99S
KILL DEVIL HLS MOSUNNY   86  74  68 N8        29.97S
MANTEO         MOSUNNY   85  75  73 NE8       29.98S
CAPE HATTERAS  SUNNY     87  75  67 VRB5      29.97F HX  96
TARBORO*       FAIR      90  72  55 N3        29.99F HX  97
GOLDSBORO      PTSUNNY   91  71  53 VRB2      29.98F HX  97
WASHINGTON     SUNNY     89  71  55 CALM      29.98F
GREENVILLE     SUNNY     90  72  55 N5        30.00F HX  96
NEW BERN       SUNNY     89  70  53 N3        29.99F
WILMINGTON     SUNNY     90  70  51 VRB5      29.98F HX  95
$$

VAZ048-041800-
ELSEWHERE

CITY           SKY/WX    TMP DP  RH WIND       PRES   REMARKS
HARRISBURG PA  MOSUNNY   90  66  45 CALM      30.04F
BALTIMORE      PTSUNNY   88  66  48 E9        30.03S
ANNAPOLIS      MOSUNNY   84  73  69 E6        30.03S HAZE
ANDREWS AFB    MOSUNNY   89  69  52 E13       30.02F
PHILADELPHIA   PTSUNNY   92  68  45 NE9G17    30.04S HX  96
HENDERSON NC   SUNNY     87  67  50 NE5       30.02S
GREENSBORO     MOSUNNY   88  67  49 NE6       30.03F
ROCKY MOUNT    SUNNY     92  69  47 N7        29.99F HX  97
$$

VAZ100-041800-
MARINE

STATION/POSITION TIME  TEMP    WIND        PRES    WAVE   SWELL
                       AIR SEA DIR/SP/G            HT/PER HT/PER
                 (UTC) (F)     (DEG/KT/KT) (MB)    (FT/S) (FT/S)
BRANDYWINE LGT   1600   80 77   90/  4/  5 1017.5R
CAPE MAY NJ      1600   84 81   80/  8/ 13 1016.8R
LEWES DE         1600   79 77   80/  9/ 11 1017.0R
15NM E FENWICK I 1650   79 80   50/ 10/ 10 1016.9R   2/ 3   2/11
OCEAN-CITY-INLET 1600   81 78   80/  5/  8 1016.0R
GOOSES REEF MD   1700   82 81   10/  8/ 10 1017.6F
COVE POINT MD    1600   80     360/  5/  6 1017.3R
SOLOMONS ISLAND  1600      82                N/A
BISHOPS HEAD MD  1600   84 82   80/  5/  7 1015.7R
PINEY POINT MD   1647          140/  9/ 10   N/A
POTOMAC MD       1700   83 81  100/  6/  8 1015.1F   0
CAMBRIDGE MD     1600   84 81   60/  4/  5 1015.8R
LEWISETTA VA     1600   82 82   90/  7/  8 1016.1R
RAPPAHANNOCK LGT 1600           70/ 11/ 13 1016.5R
STINGRAY PT      1700   83 82   60/  6/  8 1016.5F   1
YORK RVR RNG VA  1600   82      70/  8/  9 1015.6R
YORKTOWN VA      1600   82 81   80/ 12/ 13 1015.8
JAMESTOWN VA     1700   87 84   90/  8/ 14   N/A
DOMINION TERM VA 1600   83      80/ 10/ 14 1015.7R
KIPTOPEKE VA     1600      81   70/  8/ 12   N/A
CAPE HENRY VA    1600   80      50/  8/  9   N/A
CHESAPEAKE LGHT  1600   79      60/ 15/ 16 1016.2R
WILLOUBY STN VA  1600   81      80/  8/ 10 1016.9R
CAPE HENRY BUOY  1628      80                N/A     2/ 3
1ST LANDING BUOY 1700      80              1015.6S   1/ 3
CAPE CHARLES BUO 1626      80                N/A     2/12   2/12
OFFSHORE WE BUOY 1611      80                N/A     2/ 3   2/12
64NM E OF VA BCH 1650   80 80   60/ 12/ 14 1014.6F   1/11   2/11
DUCK PIER NC     1600   80 80   30/ 11/ 11 1014.4R
44100 DUCK FRF   1624      80                N/A     1/12
44056 DUCK FRF   1611      80                N/A     1/13
OREGON INLET NC  1600   84 82   10/  6/ 11 1015.0R
HATTERAS NC      1600   82 82  340/  5/  6 1014.9R
DIAMOND SHLS NC  1650   83 84  350/  6/  6 1014.9F   1/11   2/11
CAPE LOOKOUT NC  1700   83      80/  5/  5 1014.8F
$$


USA.gov is the U.S. government's official web portal to all federal, state and local government web resources and services.